Location: Newark
(13.8117°N, 3.6025°W)
Time: 14:34:23
(UTC+00:00)

Explorer 11/Cluster Stage 4 - Pass Details

Date: 03 September 2019
Orbit: 467 x 1260 km, 28.8° (Epoch: 19 September)

Event Time Altitude Azimuth Distance (km) Brightness Sun altitude
Rises 09:22:41 0° 305° (NW) 3,536 9.6 47.5°
Reaches altitude 10° 09:25:31 10° 317° (NW) 2,723 9.2 48.2°
Maximum altitude 09:31:18 29° 15° (NNE) 1,894 9.0 49.6°
Drops below altitude 10° 09:37:53 10° 72° (ENE) 3,135 10.4 51.2°
Sets 09:41:23 0° 83° (E) 4,161 10.9 52.1°
